GW3676 Weather Reports


time (UTC)temp
C
wind
direction
speed
KPH
gust
KPH
rain 1hr
cm
rain 24hr
cm
rain mn
cm
humidity
%
barometer
mb
20260508074544 7 0 0.0 3.2 0.03 0.03 0.03 83 1012.3
20260508073050 7 95 0.0 3.2 0.03 0.03 0.03 83 1012.3
20260508071547 7 0 1.6 9.7 0.03 0.03 0.03 81 1012.6
20260508070053 8 108 3.2 11.3 0.00 0.00 0.00 76 1012.7
20260508064556 8 142 1.6 16.1 0.00 0.00 0.00 73 1012.5
20260508063043 8 134 0.0 3.2 0.00 0.00 0.00 73 1012.4
20260508061543 8 127 1.6 6.4 0.00 0.00 0.00 72 1012.3
20260508060049 7 92 0.0 3.2 0.00 0.00 0.00 74 1012.7
20260508054549 7 0 0.0 1.6 0.00 0.00 0.00 72 1012.5
20260508053053 8 0 0.0 1.6 0.00 0.00 0.00 70 1012.7
20260508051602 8 0 0.0 1.6 0.00 0.00 0.00 69 1012.9
20260508050103 8 92 0.0 1.6 0.00 0.00 0.00 69 1012.9
20260508044555 8 0 0.0 3.2 0.00 0.00 0.00 68 1012.9
20260508043049 8 0 0.0 3.2 0.00 0.00 0.00 69 1013.0
20260508041555 8 0 0.0 3.2 0.00 0.00 0.00 69 1013.0
20260508040057 7 0 0.0 3.2 0.00 0.00 0.00 71 1013.0
20260508034549 6 0 0.0 3.2 0.00 0.00 0.00 75 1013.1
20260508033046 6 0 0.0 3.2 0.00 0.00 0.00 76 1013.1
20260508031551 6 0 0.0 3.2 0.00 0.00 0.00 74 1012.9
20260508030054 6 0 0.0 0.0 0.00 0.00 0.00 73 1012.8
20260508024556 6 0 0.0 0.0 0.00 0.00 0.00 71 1012.9
20260508023053 6 0 0.0 0.0 0.00 0.00 0.00 71 1012.8
20260508021554 7 0 0.0 0.0 0.00 0.00 0.00 70 1013.0
20260508020054 7 0 0.0 0.0 0.00 0.00 0.00 67 1012.8
20260508014548 7 0 0.0 0.0 0.00 0.00 0.00 64 1012.7
20260508013046 7 0 0.0 0.0 0.00 0.00 0.00 64 1012.7
20260508011547 8 0 0.0 0.0 0.00 0.00 0.00 60 1012.5
20260508010051 9 0 0.0 0.0 0.00 0.00 0.00 58 1012.3
20260508004554 10 0 0.0 1.6 0.00 0.00 0.00 57 1012.3
20260508003051 10 0 0.0 3.2 0.00 0.00 0.00 53 1012.3
20260508001549 11 0 0.0 4.8 0.00 0.00 0.00 51 1012.2
20260508000056 11 26 0.0 6.4 0.00 0.00 0.00 50 1011.9
20260507234556 11 0 3.2 16.1 0.00 0.00 0.00 48 1011.7
20260507233116 11 17 3.2 17.7 0.00 0.00 0.00 47 1011.7
20260507231549 12 45 1.6 16.1 0.00 0.00 0.00 49 1011.7
20260507230050 12 327 3.2 14.5 0.00 0.00 0.00 50 1011.7
20260507224550 12 0 3.2 14.5 0.00 0.00 0.00 51 1011.7
20260507223058 12 360 3.2 11.3 0.00 0.00 0.00 46 1011.8
20260507221549 12 13 6.4 22.5 0.00 0.00 0.00 44 1011.7
20260507220049 12 15 3.2 17.7 0.00 0.00 0.00 49 1011.6
20260507214551 12 145 4.8 14.5 0.00 0.00 0.00 46 1011.4
20260507213052 12 250 3.2 17.7 0.00 0.00 0.00 47 1011.2
20260507211601 13 352 4.8 14.5 0.00 0.00 0.00 49 1011.1
20260507210104 13 74 3.2 16.1 0.00 0.00 0.00 50 1010.9
20260507204554 12 352 3.2 14.5 0.00 0.00 0.00 48 1010.9
20260507203056 12 103 3.2 19.3 0.00 0.00 0.00 48 1010.7
20260507201555 13 13 3.2 17.7 0.00 0.00 0.00 47 1010.9
20260507200056 13 265 3.2 14.5 0.00 0.00 0.00 49 1010.8
20260507194557 14 105 3.2 17.7 0.00 0.00 0.00 45 1011.0
20260507193050 15 342 3.2 14.5 0.00 0.00 0.00 49 1011.1
20260507191552 13 51 3.2 11.3 0.00 0.00 0.00 48 1011.2
20260507190058 12 138 3.2 17.7 0.00 0.00 0.00 50 1011.3
20260507184550 12 98 3.2 16.1 0.00 0.00 0.00 50 1011.3
20260507183110 13 139 4.8 16.1 0.00 0.00 0.00 48 1011.5
20260507181557 12 67 3.2 14.5 0.00 0.00 0.00 47 1011.3
20260507180046 13 5 1.6 16.1 0.00 0.00 0.00 50 1011.3
20260507174600 13 360 3.2 14.5 0.00 0.00 0.00 49 1011.5
20260507173050 13 352 3.2 14.5 0.00 0.00 0.00 47 1011.4
20260507171551 13 126 3.2 12.9 0.00 0.00 0.00 53 1011.6
20260507170049 13 98 3.2 11.3 0.00 0.00 0.00 52 1011.7
20260507164615 12 206 6.4 17.7 0.00 0.00 0.00 51 1011.7
20260507163054 12 209 1.6 9.7 0.00 0.00 0.00 50 1011.8
20260507161556 12 222 3.2 12.9 0.00 0.00 0.00 50 1011.7
20260507160048 12 78 1.6 14.5 0.00 0.00 0.00 50 1011.8
20260507154556 12 138 3.2 14.5 0.00 0.00 0.00 53 1011.9
20260507153056 12 213 1.6 11.3 0.00 0.00 0.00 51 1011.9
20260507151549 12 196 1.6 14.5 0.00 0.00 0.00 55 1011.9
20260507150051 11 296 3.2 12.9 0.00 0.00 0.00 57 1012.0
20260507144548 11 178 3.2 11.3 0.00 0.00 0.00 60 1012.1
20260507143049 11 101 1.6 11.3 0.00 0.00 0.00 60 1012.2
20260507141545 10 149 1.6 9.7 0.00 0.00 0.00 65 1012.3
20260507140046 10 0 1.6 6.4 0.00 0.00 0.00 66 1012.4
20260507134550 9 128 1.6 6.4 0.00 0.00 0.00 70 1012.6
20260507133052 9 117 0.0 8.0 0.00 0.00 0.00 76 1012.7
20260507131548 8 148 1.6 8.0 0.00 0.00 0.00 76 1012.6
20260507130054 8 112 3.2 6.4 0.00 0.00 0.00 77 1012.7
20260507124559 7 0 0.0 9.7 0.00 0.00 0.00 79 1012.7
20260507123054 6 110 0.0 8.0 0.00 0.00 0.00 80 1012.6
20260507121553 6 131 1.6 6.4 0.00 0.00 0.00 82 1012.5
20260507120053 5 171 0.0 3.2 0.00 0.00 0.00 87 1012.5
20260507114607 4 0 0.0 3.2 0.00 0.00 0.00 89 1012.6
20260507113105 3 0 0.0 3.2 0.00 0.00 0.00 91 1012.7
20260507111558 3 0 0.0 1.6 0.00 0.00 0.00 91 1012.6
20260507110050 3 0 0.0 1.6 0.00 0.00 0.00 91 1012.5
20260507104552 3 0 0.0 3.2 0.00 0.13 0.00 91 1012.3
20260507103056 3 0 0.0 0.0 0.00 0.13 0.00 92 1012.3
20260507101556 3 0 0.0 0.0 0.00 0.13 0.00 91 1012.2
20260507094559 3 0 0.0 0.0 0.00 0.36 0.00 90 1012.1
20260507093051 3 0 0.0 0.0 0.00 0.36 0.00 90 1012.2
20260507091601 3 0 0.0 0.0 0.00 0.36 0.00 90 1012.4
20260507090044 3 0 0.0 0.0 0.00 0.36 0.00 89 1012.3
20260507084603 3 0 0.0 0.0 0.00 0.64 0.00 89 1012.3
20260507083050 3 0 0.0 0.0 0.00 0.64 0.00 89 1012.3
20260507081557 3 0 0.0 0.0 0.00 0.64 0.00 89 1012.3
20260507080049 3 0 0.0 0.0 0.00 0.64 0.00 88 1012.5